AO-07 1 07530U 74089B 24144.58101407 -.00000033 00000-0 81955-4 0 9993 2 07530 101.9774 138.9995 0012483 129.9978 343.5054 12.53675684265951 UO-11 1 14781U 84021B 24144.45592741 .00002963 00000-0 33961-3 0 9993 2 14781 97.7033 114.4747 0008905 148.3106 211.8648 14.86624162144813 AO-16 1 20439U 90005D 24144.63399057 .00000422 00000-0 16995-3 0 9990 2 20439 98.8998 149.0718 0009591 285.6899 192.9675 14.33374653793818 LO-19 1 20442U 90005G 24144.51558351 .00000440 00000-0 17571-3 0 9996 2 20442 98.8817 134.1357 0010549 256.9331 103.0675 14.33534467794245 AO-27 1 22825U 93061C 24144.07758927 .00000333 00000-0 14506-3 0 9996 2 22825 98.7899 196.5887 0009075 146.4879 213.6879 14.30492021599022 IO-26 1 22826U 93061D 24144.13277271 .00000373 00000-0 15920-3 0 9997 2 22826 98.7845 196.5076 0009820 132.9709 227.2298 14.30872855599319 FO-29 1 24278U 96046B 24144.42311848 -.00000001 00000-0 38310-4 0 9995 2 24278 98.5797 82.3245 0349112 252.3457 103.9281 13.53188679371086 NOAA-15 1 25338U 98030A 24144.82902962 .00000516 00000-0 23140-3 0 9999 2 25338 98.5698 172.4630 0011027 41.8477 318.3544 14.26583868353968 GO-32 1 25397U 98043D 24144.50522119 .00000245 00000-0 12670-3 0 9990 2 25397 98.9202 110.8621 0000781 172.7357 187.3832 14.24045897343900 ISS 1 25544U 98067A 24144.90147781 .00023720 00000-0 39650-3 0 9992 2 25544 51.6374 75.6997 0003336 205.3139 154.7687 15.51782170454782 NO-44 1 26931U 01043C 24144.74858367 .00000469 00000-0 20862-3 0 9992 2 26931 67.0527 34.6894 0006732 281.2618 78.7726 14.31232821182612 SO-50 1 27607U 02058C 24144.58736768 .00003313 00000-0 46397-3 0 9994 2 27607 64.5557 297.1558 0028477 125.5107 234.8660 14.78907033152685 CO-55 1 27844U 03031E 24144.55551458 .00000804 00000-0 37433-3 0 9990 2 27844 98.6771 151.9286 0009059 209.7101 150.3564 14.23245651 84289 CO-57 1 27848U 03031J 24144.47999046 .00000695 00000-0 32994-3 0 9999 2 27848 98.6802 152.1128 0008662 227.4133 132.6315 14.22689630 84024 RS-22 1 27939U 03042A 24144.78381987 .00002901 00000-0 49307-3 0 9993 2 27939 98.2882 300.6032 0012995 134.0796 332.8952 14.69878380104695 NOAA-18 1 28654U 05018A 24144.78220083 .00000458 00000-0 26792-3 0 9990 2 28654 98.8743 221.9492 0015231 130.3908 229.8596 14.13213389979811 CO-58 1 28895U 05043F 24144.35648092 .00003453 00000-0 61513-3 0 9990 2 28895 98.1978 280.1551 0016844 77.7775 282.5315 14.67610239990813 CO-65 1 32785U 08021C 24144.88090291 .00007863 00000-0 69610-3 0 9997 2 32785 97.7535 110.4196 0012639 53.0341 307.2036 14.96479862871915 AAUSAT2 1 32788U 08021F 24144.50584682 .00025983 00000-0 13358-2 0 9991 2 32788 97.5932 124.6962 0003144 236.8837 123.2094 15.16438476874582 CO-66 1 32791U 08021J 24144.44527106 .00012318 00000-0 90920-3 0 9995 2 32791 97.6903 115.7654 0007147 53.2862 306.9019 15.03386576872809 RS-30 1 32953U 08025A 24144.84709175 .00000035 00000-0 17936-3 0 9990 2 32953 82.5007 104.6250 0019692 154.2035 206.0031 12.43141226726105 PRISM 1 33493U 09002B 24144.61218376 .00026929 00000-0 13099-2 0 9994 2 33493 98.2063 190.1341 0011113 334.8715 25.1975 15.18328140835311 NOAA-19 1 33591U 09005A 24144.80096225 .00000416 00000-0 24745-3 0 9998 2 33591 99.0484 200.3404 0013735 5.7813 354.3515 14.13010660788183 SRMSAT 1 37841U 11058D 24143.81665891 .00000686 00000-0 23054-3 0 9993 2 37841 19.9735 310.2335 0011773 175.4519 318.9670 14.11112510650975 HRBE 1 37855U 11061F 24144.42972760 .00244936 00000-0 14945-2 0 9992 2 37855 101.6859 314.9518 0036613 44.5551 315.8632 15.75726437689619 RS-40 1 38735U 12041C 24144.54013482 .00000059 00000-0 35362-3 0 9992 2 38735 82.4764 185.2472 0015940 271.9320 87.9934 12.42608612536209 ZACUBE-1 1 39417U 13066B 24144.86236576 .00006219 00000-0 65180-3 0 9999 2 39417 97.7328 101.3853 0049215 239.9737 119.6592 14.89017081567969 Delfi-N3xt 1 39428U 13066N 24144.35400632 .00006658 00000-0 85706-3 0 9994 2 39428 97.8402 63.3516 0101918 168.1478 192.2167 14.77786979562429 GOMX-1 1 39430U 13066Q 24144.72029542 .00004061 00000-0 67945-3 0 9996 2 39430 97.7356 20.5821 0139604 331.2674 28.0889 14.64072853559469 LO-74 1 39440U 13066AA 24144.55439035 .00007511 00000-0 88823-3 0 9991 2 39440 97.8127 88.7611 0070069 356.3382 3.7310 14.83140113564688 AO-73 1 39444U 13066AE 24144.39794679 .00006965 00000-0 68153-3 0 9991 2 39444 97.7182 103.9935 0046993 221.6871 138.0763 14.91794977566416 SPROUT 1 39770U 14029E 24144.38031234 .00140950 00000-0 33753-2 0 9993 2 39770 98.0084 294.4771 0008941 251.3059 108.7215 15.40848586543823 DTUSAT-2 1 40030U 14033W 24144.84027347 .00009034 00000-0 76766-3 0 9999 2 40030 98.0083 96.6490 0008105 230.2253 129.8255 14.98086201539561 EO-80 1 40032U 14033Y 24144.80985333 .00009397 00000-0 79746-3 0 9998 2 40032 98.0059 96.6260 0007999 225.9420 134.1143 14.98121975539549 HODOYOSHI-1 1 40299U 14070B 24144.80513825 .00030893 00000-0 61173-3 0 9997 2 40299 97.1408 205.2289 0009132 123.5141 236.6983 15.46975673531352 XW-2C 1 40906U 15049H 24144.72038002 .00035860 00000-0 86316-3 0 9994 2 40906 97.4788 160.9165 0009075 45.7477 314.4513 15.41157611480709 XW-2D 1 40907U 15049J 24144.78688387 .00051372 00000-0 98264-3 0 9999 2 40907 97.4729 163.2494 0006556 39.5488 320.6239 15.47894528480929 LILACSAT-2 1 40908U 15049K 24144.80370800 .00012565 00000-0 49126-3 0 9995 2 40908 97.5239 153.3444 0014347 79.4407 280.8446 15.25899001479778 XW-2B 1 40911U 15049N 24144.86651339 .00051507 00000-0 10084-2 0 9993 2 40911 97.4702 163.4640 0006742 41.6649 318.5113 15.47219541480800 IO-86 1 40931U 15052B 24136.95717399 .00002151 00000-0 20399-3 0 9991 2 40931 6.0023 222.9950 0013568 344.2606 15.7100 14.77820398466680 ChubuSat-2 1 41338U 16012B 24144.46308686 .00006812 00000-0 42516-3 0 9993 2 41338 31.0000 189.9167 0011095 347.8071 12.2297 15.08045971453861 ChubuSat-3 1 41339U 16012C 24144.52936051 .00006390 00000-0 40450-3 0 9990 2 41339 31.0062 187.8214 0011088 353.6075 6.4420 15.07499233453856 Horyu-4 1 41340U 16012D 24144.31913952 .00014751 00000-0 74567-3 0 9990 2 41340 31.0009 137.6089 0009195 82.5072 277.6613 15.15820905454370 Lapan A3 1 41603U 16040E 24144.76973093 .00005066 00000-0 20496-3 0 9995 2 41603 97.1422 159.5975 0012059 179.1435 180.9826 15.25065476439505 Pratham 1 41783U 16059A 24144.60903299 .00001794 00000-0 34171-3 0 9997 2 41783 97.8365 165.0996 0034105 98.5296 261.9775 14.64838024408943 CAS-2T 1 41847U 16066G 24144.17473271 .00001547 00000-0 23655-3 0 9991 2 41847 98.4606 215.6583 0353292 252.6355 103.5913 14.41161650395896 CAS-4B 1 42759U 17034B 24144.85774961 .00020379 00000-0 75000-3 0 9990 2 42759 43.0203 3.9823 0012538 195.1821 164.8656 15.27428300383688 CAS-4A 1 42761U 17034D 24144.86076253 .00022620 00000-0 82885-3 0 9993 2 42761 43.0239 2.3273 0011439 204.7979 155.2325 15.27531932383696 Aalto 1 1 42775U 17036L 24144.61575751 .00094704 00000-0 10080-2 0 9999 2 42775 97.1055 174.0109 0002878 262.3217 97.7716 15.63696605385262 URSA MAIOR 1 42776U 17036M 24144.82766717 .00284331 00000-0 14221-2 0 9995 2 42776 97.0993 178.1581 0004698 217.8642 142.2297 15.81042168385541 Max Valier Sat 1 42778U 17036P 24144.63518198 .00256706 00000-0 12776-2 0 9992 2 42778 97.0915 182.0586 0003375 210.0111 150.0965 15.81226376385693 D-SAT 1 42794U 17036AF 24144.52886333 .00005626 00000-0 39860-3 0 9994 2 42794 97.4901 127.3243 0108532 230.5104 128.6484 15.00498053377021 TechnoSat 1 42829U 17042E 24144.50992792 .00005463 00000-0 48569-3 0 9990 2 42829 97.3827 326.9676 0013384 152.3132 207.8806 14.96418069373482 AO-91 1 43017U 17073E 24144.59641420 .00014982 00000-0 92893-3 0 9997 2 43017 97.5816 20.9575 0212305 16.4463 344.3507 14.92944552351996 TianYi 2 1 43155U 18008A 24144.85667453 .00123558 00000-0 17406-2 0 9998 2 43155 97.2374 198.4365 0008854 166.3399 193.8098 15.56164050351112 Zhou Enlai 1 43156U 18008B 24144.87202787 .00224952 00000-0 21327-2 0 9993 2 43156 97.2401 200.1131 0006816 180.9980 179.1268 15.66191174351136 TianYi 6 1 43158U 18008D 24144.67021731 .00061150 00000-0 12940-2 0 9991 2 43158 97.2558 193.2386 0008506 170.8795 189.2610 15.44885431350689 S-Net D 1 43186U 18014G 24144.31098509 .00006494 00000-0 46967-3 0 9994 2 43186 97.5942 46.5917 0012891 91.6542 268.6161 15.04300656344764 S-Net B 1 43187U 18014H 24144.31314309 .00006598 00000-0 47708-3 0 9993 2 43187 97.5952 46.5413 0013742 87.7330 272.5469 15.04294613344764 S-Net A 1 43188U 18014J 24144.31216085 .00006554 00000-0 47382-3 0 9996 2 43188 97.5956 46.6512 0013617 88.5314 271.7472 15.04301898344761 S-Net C 1 43189U 18014K 24144.24880160 .00006769 00000-0 48908-3 0 9993 2 43189 97.5977 46.5315 0015383 82.2531 278.0441 15.04295972343309 Ten-Koh 1 43677U 18084G 24144.39270095 .00004414 00000-0 39957-3 0 9997 2 43677 98.0604 297.2045 0015395 98.8276 261.4688 14.95857654303014 PO-101 1 43678U 18084H 24144.84895129 .00003711 00000-0 34299-3 0 9992 2 43678 98.0688 302.1305 0010491 109.9760 250.2590 14.95192660303282 QO-100 1 43700U 18090A 24144.75599403 .00000165 00000-0 00000+0 0 9990 2 43700 0.0169 1.0308 0002016 97.4936 81.2891 1.00271581 20355 MinXSS-2 1 43758U 18099A 24144.16479299 .00013503 00000-0 86524-3 0 9996 2 43758 97.5560 206.9136 0017704 48.9822 311.2934 15.08522805299010 AO-95 1 43770U 18099N 24144.11699376 .00011115 00000-0 77670-3 0 9994 2 43770 97.5460 202.5011 0015079 90.2277 270.0677 15.05393380298795 RANGE-B 1 43772U 18099Q 24144.66752690 .00016017 00000-0 10063-2 0 9993 2 43772 97.5249 206.4335 0004856 6.4363 353.6927 15.09327687299024 RANGE-A 1 43773U 18099R 24144.59300603 .00006420 00000-0 49136-3 0 9990 2 43773 97.5030 198.6317 0015986 62.8492 297.4361 15.02116719298740 MOVE-II 1 43780U 18099Y 24144.72510167 .00023505 00000-0 12636-2 0 9998 2 43780 97.5231 207.9554 0007502 73.4476 286.7580 15.14858308299221 SNUSat 2 1 43782U 18099AA 24144.64957428 .00010226 00000-0 73028-3 0 9995 2 43782 97.5139 202.3066 0015012 30.5598 329.6500 15.04603423298886 SnugLite 1 43784U 18099AC 24144.15450269 .00009859 00000-0 68498-3 0 9999 2 43784 97.4974 201.1824 0005548 54.9898 305.1849 15.05720952298871 ITASat 1 1 43786U 18099AE 24144.11275658 .00009221 00000-0 67004-3 0 9999 2 43786 97.5112 202.0854 0018353 79.3657 280.9634 15.03933739298805 EAGLET 1 1 43790U 18099AJ 24144.40267941 .00005672 00000-0 42940-3 0 9990 2 43790 97.5292 202.8496 0015496 58.0807 302.1923 15.02589371298553 ESEO 1 43792U 18099AL 24144.11634633 .00003731 00000-0 30756-3 0 9992 2 43792 97.5217 199.5901 0014868 59.1803 301.0882 14.99547979298448 CSIM 1 43793U 18099AM 24144.57926190 .00021921 00000-0 11799-2 0 9991 2 43793 97.5306 209.5135 0012966 43.4177 316.8074 15.14781391299057 JO-97 1 43803U 18099AX 24144.40292430 .00010879 00000-0 73065-3 0 9993 2 43803 97.5213 203.6295 0010314 36.3902 323.8025 15.06925998298967 Suomi 100 1 43804U 18099AY 24144.64135816 .00012415 00000-0 84744-3 0 9998 2 43804 97.5292 203.6662 0016216 30.4756 329.7410 15.06226044298983 ISAT 1 43879U 18111D 24144.29839007 .00015047 00000-0 92892-3 0 9996 2 43879 97.6218 50.1286 0015314 86.1789 274.1191 15.09897736295669 UWE-4 1 43880U 18111E 24144.26931874 .00012930 00000-0 81730-3 0 9997 2 43880 97.6148 50.1800 0019061 93.8641 266.4767 15.09015159295675 Sparrow 1 43881U 18111F 24144.21144316 .00014818 00000-0 90322-3 0 9994 2 43881 97.6312 51.8959 0012310 120.4215 239.8232 15.10401112295712 AISat 1 1 44104U 19018AC 24144.56256120 .00241062 23297-4 79391-3 0 9998 2 44104 97.3617 253.9891 0009863 70.3319 289.9017 15.90386642288956 Prox-1 1 44339U 19036A 24144.00221432 .00013716 00000-0 23904-2 0 9999 2 44339 24.0003 27.3888 0008648 79.0966 281.0501 14.66319771261543 SONATE 1 44400U 19038Q 24144.54054818 .00023542 00000-0 73316-3 0 9992 2 44400 97.7115 137.5566 0016412 184.8801 175.2283 15.33150179270306 BeeSat 9 1 44412U 19038AC 24144.74496531 .00760912 25025-3 19851-2 0 9998 2 44412 97.6694 150.9869 0010881 163.0598 197.1042 15.94875784270951 JAISAT-1 1 44419U 19038F 24144.76438949 .00521444 10480-3 18217-2 0 9995 2 44419 97.6699 151.8630 0010541 156.9009 203.2739 15.89190688271321 Taurus 1 1 44530U 19059C 24144.75960623 .00010340 00000-0 24050-2 0 9994 2 44530 98.5738 264.2891 0012853 129.8427 230.3902 14.55027314248210 Duchifat 3 1 44854U 19089C 24144.49350059 .00018468 00000-0 95160-3 0 9993 2 44854 36.9562 198.8622 0007782 240.5281 119.4690 15.15666010244528 TO-108 1 44881U 19093C 24144.83013653 .00002295 00000-0 28367-3 0 9998 2 44881 97.8283 222.0821 0015343 46.8652 313.3842 14.83682319239438 FloripaSat 1 1 44885U 19093G 24144.77354620 .00008208 00000-0 85553-3 0 9997 2 44885 97.8409 227.5379 0013111 41.9270 318.2949 14.89978070239736 RS-44 1 44909U 19096E 24144.40710269 .00000016 00000-0 96771-5 0 9997 2 44909 82.5184 121.2414 0218577 109.0242 253.4676 12.79729988205809 BY70-2 1 45857U 20042B 24144.84472624 .00142307 00000-0 55457-2 0 9994 2 45857 97.9075 236.8914 0009771 269.0353 90.9764 15.25303542210832 UPMSat 2 1 46276U 20061E 24144.17329901 .00019122 00000-0 59874-3 0 9992 2 46276 97.2989 210.7243 0001564 156.8380 203.2933 15.33144788206348 AmicalSat 1 46287U 20061R 24144.16810172 .00037338 00000-0 10732-2 0 9996 2 46287 97.3509 211.4454 0000401 294.5510 65.5692 15.35718678205724 SALSAT 1 46495U 20068K 24144.80372374 .00009127 00000-0 52220-3 0 9996 2 46495 97.8153 103.4920 0015262 44.1289 316.1155 15.12794108200626 UVSQ-SAT 1 47438U 21006AB 24144.13116574 .00054255 00000-0 11279-2 0 9991 2 47438 97.3283 204.3199 0005066 292.6969 67.3744 15.45463600184860 YUSAT 1 1 47439U 21006AC 24144.41581821 .00152030 00000-0 16451-2 0 9991 2 47439 97.3242 208.6899 0005986 255.9987 104.0606 15.63067269185175 SOMP 2b 1 47445U 21006AJ 24144.15023459 .00045680 00000-0 10403-2 0 9990 2 47445 97.3247 202.7574 0004975 308.3657 51.7143 15.42800327184794 IDEASSat 1 47458U 21006AX 24144.14850975 .00043142 00000-0 10668-2 0 9998 2 47458 97.3355 203.3480 0004953 312.9144 47.1686 15.40327485184731 CubeSX-Sirius-HSE 1 47951U 21022V 24144.89952015 .00023676 00000-0 95531-3 0 9997 2 47951 97.4634 43.3403 0013298 215.1615 144.8746 15.24717491174874 CubeSX-HSE 1 47952U 21022W 24144.85471384 .00024650 00000-0 99105-3 0 9993 2 47952 97.4636 43.3823 0013235 214.4914 145.5466 15.24829461174876 KSU-Cubesat 1 47954U 21022Y 24144.69162735 .00028838 00000-0 10681-2 0 9997 2 47954 97.4643 44.4303 0012321 208.6033 151.4532 15.27539011174640 GRBAlpha 1 47959U 21022AD 24144.75500179 .00024042 00000-0 96418-3 0 9993 2 47959 97.4636 43.4288 0013073 215.0301 145.0078 15.24921673173686 Orbicraft-Zorkiy 1 47960U 21022AE 24144.77874776 .00024081 00000-0 91405-3 0 9998 2 47960 97.4679 44.6478 0012404 210.4505 149.6015 15.26764046174437 STECCO 1 47962U 21022AG 24144.73971330 .00125737 00000-0 19307-2 0 9990 2 47962 97.4634 53.2210 0009942 151.3346 208.8455 15.53781420174328 MO-110 1 47964U 21022AJ 24144.26188043 .00165022 00000-0 20823-2 0 9997 2 47964 97.4654 54.3496 0011131 150.9220 209.2658 15.58954454174345 TUBIN 1 48900U 21059X 24144.72459641 .00020018 00000-0 70342-3 0 9991 2 48900 97.6431 288.6657 0007641 166.3580 193.7867 15.29391483161185 LEDSAT 1 49069U 21073D 24144.17715323 .00018866 00000-0 77674-3 0 9998 2 49069 97.4387 215.4891 0019195 16.0072 344.1768 15.23995371152645 CUTE 1 49263U 21088D 24144.69662363 .00021780 00000-0 10450-2 0 9999 2 49263 97.4984 210.8635 0015685 161.5479 198.6327 15.18787204145920 TeikyoSat 4 1 49396U 21102B 24144.56702693 .00002966 00000-0 21724-3 0 9992 2 49396 97.4604 190.3959 0013387 7.4752 352.6671 15.04231559139059 Z-Sat 1 49399U 21102E 24144.85916811 .00006661 00000-0 43255-3 0 9995 2 49399 97.4330 192.1705 0019711 346.3033 13.7658 15.08207156139321 KOSEN 1 1 49402U 21102H 24144.68365371 .00009207 00000-0 55023-3 0 9995 2 49402 97.4250 193.3534 0017981 329.7928 30.2264 15.11163053139446 HO-113 1 50466U 21131B 24144.86964822 .00001331 00000-0 43992-3 0 9997 2 50466 98.5277 230.0531 0004150 182.7316 177.3850 14.39615709126503 Tevel-3 1 50988U 22002E 24144.75842190 .00155238 00000-0 18290-2 0 9993 2 50988 97.3789 219.5125 0002331 161.2459 198.8885 15.60861994131233 Tevel-8 1 50989U 22002F 24144.73348363 .00151037 00000-0 17933-2 0 9991 2 50989 97.3813 219.5781 0002522 160.7084 199.4269 15.60673315131220 Tevel-5 1 50998U 22002Q 24144.83935994 .00221514 00000-0 21133-2 0 9999 2 50998 97.3781 220.8530 0001945 185.7045 174.4193 15.66063680131338 Tevel-6 1 50999U 22002R 24144.84602805 .00214952 00000-0 20707-2 0 9997 2 50999 97.3772 220.8248 0001967 183.8681 176.2564 15.65840103131338 Tevel-1 1 51013U 22002AF 24144.85084441 .00162721 00000-0 19284-2 0 9990 2 51013 97.3778 219.4698 0002196 158.8110 201.3239 15.60683983131244 IRIS-A 1 51044U 22002BN 24144.41572444 .00022594 00000-0 76466-3 0 9990 2 51044 97.3860 211.0268 0007607 120.8362 239.3628 15.30584016130630 Tevel-7 1 51062U 22002CG 24144.85007761 .00166222 00000-0 19528-2 0 9995 2 51062 97.3796 219.6743 0002143 160.1714 199.9627 15.60900844131240 Tevel-4 1 51063U 22002CH 24144.82430060 .00163327 00000-0 19560-2 0 9994 2 51063 97.3800 219.5481 0002135 155.6070 204.5289 15.60406287131238 Tevel-2 1 51069U 22002CP 24144.75623584 .00155556 00000-0 18298-2 0 9999 2 51069 97.3785 219.4780 0002227 161.7705 198.3633 15.60903386131237 SO-115 1 51080U 22002DA 24138.97473811 .01074440 52663-3 29891-2 0 9994 2 51080 97.4040 222.9051 0008030 241.6354 118.4112 15.93784625130740 SO-114 1 51081U 22002DB 24142.74938976 .04589662 24556-5 17292-2 0 9997 2 51081 97.3942 227.5617 0013335 270.9952 88.9811 16.24120762131382 OreSat0 1 52017U 22026K 24144.57743278 .00075124 00000-0 13196-2 0 9996 2 52017 97.4954 157.8025 0009189 306.8321 53.2087 15.50210715121896 Planetum 1 1 52738U 22057G 24144.32088178 .00043798 00000-0 11179-2 0 9995 2 52738 97.5639 269.6119 0005943 231.1217 128.9498 15.39351547110745 Foresail-1 1 52766U 22057AL 24144.29734718 .00023409 00000-0 78222-3 0 9990 2 52766 97.5798 269.2438 0009656 214.2805 145.7814 15.30976118110648 SNUGLITE 2 1 52899U 22065F 24144.87580942 .00002742 00000-0 57128-3 0 9997 2 52899 98.1163 286.4974 0006971 221.5769 138.4903 14.60746059100717 IO-117 1 53106U 22080B 24143.44283041 -.00000003 00000-0 00000-0 0 9991 2 53106 70.1379 201.4638 0007708 112.7350 247.4125 6.42557493 43613 SelfieSat 1 53951U 22057BC 24144.34741976 .00088599 00000-0 14960-2 0 9996 2 53951 97.5662 272.9537 0007500 229.2809 130.7791 15.51290436110937 FO-118 1 54684U 22167C 24144.86301486 .00035798 00000-0 12746-2 0 9990 2 54684 97.6029 289.1441 0010575 227.2458 132.7893 15.28809192 80588 SSS-2B 1 56184U 23054G 24144.85400806 .00043387 00000-0 11090-2 0 9992 2 56184 97.3725 42.6649 0004459 248.2624 111.8147 15.39316814 62394 CIRBE 1 56188U 23054L 24144.26174483 .00074058 00000-0 13461-2 0 9993 2 56188 97.3645 43.5978 0003004 220.1471 139.9558 15.49280861 62422 INSPIRE-Sat 7 1 56211U 23054AK 24144.28053887 .00075742 00000-0 12951-2 0 9990 2 56211 97.3678 44.8023 0006887 198.5672 161.5329 15.50991267 62498 RoseyCubesat 1 1 56212U 23054AL 24144.86153401 .00106015 00000-0 15805-2 0 9997 2 56212 97.3692 46.0333 0007461 190.3980 169.7121 15.54691428 62629 SO-120 1 56992U 23084BU 24144.55639264 .00036962 00000-0 14001-2 0 9997 2 56992 97.5294 263.6800 0013192 115.0672 245.1937 15.26730941 52424 MRC-100 1 56993U 23084BV 24144.29699842 .00040172 00000-0 14399-2 0 9995 2 56993 97.5293 263.7423 0012193 115.2522 244.9983 15.28545775 52410 UmKA 1 (RS40S) 1 57172U 23091G 24144.83757278 .00008763 00000-0 58326-3 0 9990 2 57172 97.6124 197.1322 0016692 200.3099 159.7466 15.07255933 49826 CubeBel-2 (EU11S) 1 57175U 23091K 24144.86408439 .00010590 00000-0 69338-3 0 9994 2 57175 97.6133 197.0856 0014697 210.3716 149.6662 15.07833480 49825 VERONIKA 1 58261U 23174F 24144.78241735 .00021245 00000-0 97932-3 0 9998 2 58261 97.4612 219.8076 0011108 331.3950 28.6674 15.20233472 30006 KAFASAT 1 58317U 23174BP 24144.71636212 .00027173 00000-0 11465-2 0 9993 2 58317 97.4559 220.2144 0009861 304.9833 55.0477 15.23218092 30031 ENSO 1 58470U 23185J 24144.75743235 .00018566 00000-0 80231-3 0 9997 2 58470 97.4277 211.7475 0012278 11.1574 348.9932 15.22460426 26422 EIRSAT-1 1 58472U 23185L 24144.73898811 .00021587 00000-0 91903-3 0 9993 2 58472 97.4272 211.7547 0011803 12.0593 348.0924 15.22941169 26423 SO-121 1 58567U 23174CY 24144.50871016 .00055535 00000-0 20564-2 0 9993 2 58567 97.4553 220.2048 0011146 309.6166 50.4088 15.27402877 30010 SONATE-2 1 59112U 24043Q 24144.78515023 .00013008 00000-0 63939-3 0 9992 2 59112 97.4759 268.9046 0015324 24.0363 336.1583 15.18064858 12108 KASHIWA 1 59508U 98067WH 24144.07292896 .00126847 00000-0 14769-2 0 9992 2 59508 51.6347 78.4138 0004857 180.5923 179.5066 15.60758967 6563 /EX